Flag for Switzerland Weather past 2 weeks in Riehen, Basel-Stadt, Switzerland

Now
53 °F

Partly sunny.


Feels Like: 49 °F
Forecast: 34 / 43 °F
Wind: 15 mph from West

Location: Bale-Mulhouse

Current Time: Mar 3, 2015 at 4:02:46 PM

Latest Report: Mar 3, 2015 at 3:00 PM


Visibility: 25 mi

Pressure: 30.17 "Hg

Humidity: 48%

Dew point: 34 °F

Location of RiehenLocation

Historic Weather in Riehen — Graph

°F

Riehen temperature yesterday

Maximum temperature yesterday: 53 °F (at 2:00 AM)
Minimum temperature yesterday: 40 °F (at 11:00 PM)
Average temperature yesterday: 48 °F

Past Weeks' High & Low Weather Summary

 TemperatureHumidityPressure
High60 °F (Feb 20, 4:00 PM)99% (Feb 28, 9:00 AM)30.73 "Hg (Feb 28, 9:00 AM)
Low28 °F (Feb 19, 8:00 AM)19% (Feb 20, 5:00 PM)29.59 "Hg (Feb 21, 7:00 AM)
Average39 °F80%30.08 "Hg
* Reported Feb 16 2:00 PM — Mar 3 2:00 PM, Riehen, Weather by CustomWeather, © 2015

Note: Actual official high and low records may vary slightly from our data, if they occured in-between our weather recording intervals... More about our weather records

Advertising

Riehen weather history for previous 24 hours

 ConditionsComfort  
Time TempWeatherWind HumidityBarometerVisibility
2:00 PM
Tue, Mar 3
53 °FPartly sunny.13 mph56%30.19 "Hg25 mi
1:00 PM51 °FPartly sunny.12 mph53%30.22 "Hg25 mi
12:00 PM51 °FScattered clouds.5 mph41%30.23 "Hg25 mi
11:00 AM46 °FScattered clouds.7 mph55%30.26 "Hg25 mi
10:00 AM42 °FPartly sunny.6 mph70%30.28 "Hg22 mi
9:00 AM36 °FPartly sunny.No wind85%30.30 "Hg22 mi
8:00 AM34 °FPartly sunny.5 mph89%30.29 "Hg22 mi
7:00 AM33 °FPassing clouds.2 mph87%30.29 "Hg22 mi
6:00 AM34 °FPassing clouds.6 mph84%30.28 "Hg19 mi
5:00 AM36 °FPassing clouds.5 mph72%30.28 "Hg19 mi
4:00 AM36 °FOvercast.2 mph75%30.27 "Hg34 mi
3:00 AM35 °FOvercast.3 mph79%30.27 "Hg28 mi
2:00 AM38 °FOvercast.5 mph72%30.27 "Hg34 mi
1:00 AM39 °FOvercast.8 mph71%30.25 "Hg37 mi
12:00 AM36 °FPassing clouds.5 mph79%30.25 "Hg31 mi
11:00 PM
Mon, Mar 2
40 °FPassing clouds.9 mph73%30.23 "Hg31 mi
9:00 PM42 °FPassing clouds.8 mph70%30.17 "Hg31 mi
8:00 PM44 °FPassing clouds.16 mph64%30.11 "Hg31 mi
7:00 PM45 °FPassing clouds.14 mph69%30.06 "Hg12 mi
6:00 PM47 °FPartly sunny.12 mph66%30.01 "Hg12 mi
5:00 PM48 °FSprinkles. Partly sunny.24 mph59%29.98 "Hg12 mi
4:00 PM46 °FPartly sunny.14 mph75%29.96 "Hg12 mi
Weather by CustomWeather, © 2015

See weather overviewHow to use our weather pages